| time (UTC) | temp F | wind direction | speed MPH | gust MPH | rain 1hr in | rain 24hr in | rain mn in | humidity % | barometer mb |
| 20260831121552 | 62 | 73 | 0.0 | 3.0 | 0.00 | 0.02 | 0.02 | 1 | 1017.7 |
| 20260831120048 | 61 | 84 | 0.0 | 3.0 | 0.00 | 0.02 | 0.02 | 1 | 1017.9 |
| 20260831114540 | 61 | 80 | 0.0 | 2.0 | 0.00 | 0.02 | 0.02 | 1 | 1018.1 |
| 20260831113036 | 61 | 74 | 0.0 | 3.0 | 0.00 | 0.02 | 0.02 | 1 | 1018.1 |
| 20260831111533 | 61 | 88 | 0.0 | 2.0 | 0.00 | 0.02 | 0.02 | 1 | 1017.8 |
| 20260831110027 | 60 | 76 | 0.0 | 0.0 | 0.00 | 0.02 | 0.02 | 1 | 1017.5 |
| 20260831104531 | 60 | 85 | 0.0 | 0.0 | 0.00 | 0.02 | 0.02 | 1 | 1017.3 |
| 20260831103036 | 61 | 84 | 0.0 | 0.0 | 0.00 | 0.02 | 0.02 | 1 | 1017.4 |
| 20260831101511 | 61 | 86 | 0.0 | 0.0 | 0.00 | 0.02 | 0.02 | 1 | 1017.2 |
| 20260831100010 | 61 | 111 | 0.0 | 0.0 | 0.00 | 0.02 | 0.02 | 1 | 1017.1 |
| 20260831094601 | 61 | 103 | 0.0 | 0.0 | 0.00 | 0.02 | 0.02 | 1 | 1017.0 |
| 20260831093059 | 61 | 109 | 0.0 | 1.0 | 0.00 | 0.02 | 0.02 | 1 | 1017.2 |
| 20260831091606 | 61 | 114 | 1.0 | 3.0 | 0.00 | 0.02 | 0.02 | 1 | 1017.1 |
| 20260831090059 | 61 | 128 | 1.0 | 3.0 | 0.00 | 0.02 | 0.02 | 1 | 1017.1 |
| 20260831084646 | 61 | 107 | 2.0 | 4.0 | 0.00 | 0.02 | 0.02 | 1 | 1017.1 |
| 20260831083022 | 61 | 113 | 0.0 | 2.0 | 0.00 | 0.02 | 0.02 | 1 | 1017.1 |
| 20260831081510 | 61 | 130 | 1.0 | 3.0 | 0.00 | 0.02 | 0.02 | 1 | 1017.1 |
| 20260831081508 | 61 | 131 | 1.0 | 3.0 | 0.00 | 0.02 | 0.02 | 1 | 1017.1 |
| 20260831080007 | 61 | 113 | 0.0 | 0.0 | 0.00 | 0.02 | 0.02 | 1 | 1016.8 |
| 20260831074557 | 61 | 105 | 0.0 | 0.0 | 0.00 | 0.02 | 0.02 | 1 | 1017.0 |
| 20260831073054 | 61 | 109 | 0.0 | 0.0 | 0.00 | 0.02 | 0.02 | 1 | 1017.0 |
| 20260831071553 | 61 | 115 | 0.0 | 1.0 | 0.00 | 0.02 | 0.02 | 1 | 1016.9 |
| 20260831070046 | 61 | 141 | 0.0 | 0.0 | 0.00 | 0.02 | 0.02 | 1 | 1016.8 |
| 20260831064542 | 61 | 146 | 0.0 | 0.0 | 0.00 | 0.02 | 0.02 | 1 | 1016.9 |
| 20260831063036 | 61 | 149 | 0.0 | 0.0 | 0.00 | 0.02 | 0.02 | 1 | 1016.9 |
| 20260831061532 | 61 | 150 | 0.0 | 0.0 | 0.00 | 0.02 | 0.02 | 1 | 1017.1 |
| 20260831060026 | 61 | 150 | 0.0 | 2.0 | 0.00 | 0.02 | 0.02 | 1 | 1017.2 |
| 20260831054527 | 61 | 193 | 0.0 | 0.0 | 0.00 | 0.02 | 0.02 | 1 | 1017.3 |
| 20260831053021 | 61 | 112 | 0.0 | 0.0 | 0.00 | 0.02 | 0.02 | 1 | 1017.3 |
| 20260831051513 | 62 | 112 | 0.0 | 0.0 | 0.00 | 0.02 | 0.02 | 1 | 1017.3 |
| 20260831050006 | 62 | 248 | 0.0 | 0.0 | 0.00 | 0.02 | 0.02 | 1 | 1017.3 |
| 20260831044505 | 62 | 300 | 0.0 | 0.0 | 0.00 | 0.02 | 0.02 | 1 | 1017.4 |
| 20260831043100 | 62 | 299 | 0.0 | 0.0 | 0.00 | 0.02 | 0.02 | 1 | 1017.6 |
| 20260831041616 | 62 | 298 | 0.0 | 0.0 | 0.00 | 0.02 | 0.02 | 1 | 1017.5 |
| 20260831040046 | 62 | 290 | 0.0 | 0.0 | 0.00 | 0.02 | 0.02 | 1 | 1017.4 |
| 20260831034542 | 62 | 300 | 0.0 | 0.0 | 0.00 | 0.02 | 0.02 | 1 | 1017.5 |
| 20260831033037 | 62 | 302 | 0.0 | 0.0 | 0.00 | 0.02 | 0.02 | 1 | 1017.6 |
| 20260831031541 | 62 | 34 | 0.0 | 0.0 | 0.00 | 0.02 | 0.02 | 1 | 1017.6 |
| 20260831030026 | 62 | 123 | 0.0 | 0.0 | 0.00 | 0.02 | 0.02 | 1 | 1017.6 |
| 20260831024521 | 63 | 124 | 0.0 | 0.0 | 0.00 | 0.02 | 0.02 | 1 | 1017.5 |
| 20260831023016 | 62 | 124 | 0.0 | 0.0 | 0.00 | 0.02 | 0.02 | 1 | 1017.4 |
| 20260831021513 | 62 | 123 | 0.0 | 0.0 | 0.00 | 0.02 | 0.02 | 1 | 1017.3 |
| 20260831020008 | 62 | 124 | 0.0 | 0.0 | 0.00 | 0.02 | 0.02 | 1 | 1017.2 |
| 20260831014504 | 62 | 122 | 0.0 | 0.0 | 0.00 | 0.02 | 0.02 | 1 | 1017.4 |
| 20260831013057 | 63 | 94 | 0.0 | 0.0 | 0.00 | 0.02 | 0.02 | 1 | 1017.5 |
| 20260831011556 | 63 | 88 | 0.0 | 0.0 | 0.00 | 0.02 | 0.02 | 1 | 1017.4 |
| 20260831010055 | 63 | 94 | 0.0 | 0.0 | 0.00 | 0.02 | 0.02 | 1 | 1017.2 |
| 20260831004547 | 63 | 95 | 0.0 | 0.0 | 0.00 | 0.02 | 0.02 | 1 | 1016.9 |
| 20260831003012 | 63 | 82 | 0.0 | 0.0 | 0.00 | 0.02 | 0.02 | 1 | 1016.6 |
| 20260831001507 | 63 | 165 | 0.0 | 0.0 | 0.00 | 0.02 | 0.02 | 1 | 1016.3 |
| 20260831000035 | 63 | 173 | 0.0 | 0.0 | 0.00 | 0.02 | 0.02 | 1 | 1016.0 |
| 20260830234542 | 63 | 172 | 0.0 | 0.0 | 0.00 | 0.02 | 0.02 | 1 | 1015.9 |
| 20260830233022 | 63 | 173 | 0.0 | 0.0 | 0.00 | 0.02 | 0.02 | 1 | 1015.7 |
| 20260830231516 | 63 | 159 | 0.0 | 0.0 | 0.00 | 0.02 | 0.02 | 1 | 1015.7 |
| 20260830230021 | 64 | 173 | 0.0 | 0.0 | 0.00 | 0.02 | 0.02 | 1 | 1015.7 |
| 20260830224508 | 64 | 174 | 0.0 | 0.0 | 0.00 | 0.02 | 0.02 | 1 | 1015.7 |
| 20260830223001 | 64 | 173 | 0.0 | 1.0 | 0.01 | 0.02 | 0.02 | 1 | 1015.7 |
| 20260830221612 | 64 | 238 | 0.0 | 1.0 | 0.02 | 0.02 | 0.02 | 1 | 1015.7 |
| 20260830220053 | 64 | 331 | 0.0 | 0.0 | 0.02 | 0.02 | 0.02 | 1 | 1016.0 |
| 20260830214547 | 65 | 297 | 1.0 | 2.0 | 0.02 | 0.02 | 0.02 | 1 | 1015.9 |
| 20260830213044 | 65 | 318 | 0.0 | 4.0 | 0.01 | 0.01 | 0.01 | 1 | 1015.9 |
| 20260830211536 | 66 | 232 | 0.0 | 3.0 | 0.00 | 0.00 | 0.00 | 1 | 1015.8 |
| 20260830210031 | 67 | 250 | 2.0 | 7.0 | 0.00 | 0.00 | 0.00 | 20 | 1015.9 |
| 20260830204539 | 69 | 348 | 2.0 | 14.0 | 0.00 | 0.00 | 0.00 | 41 | 1015.7 |
| 20260830203024 | 70 | 248 | 0.0 | 3.0 | 0.00 | 0.00 | 0.00 | 37 | 1015.4 |
| 20260830201520 | 71 | 284 | 0.0 | 1.0 | 0.00 | 0.00 | 0.00 | 50 | 1015.2 |
| 20260830200030 | 71 | 336 | 0.0 | 2.0 | 0.00 | 0.00 | 0.00 | 50 | 1015.3 |
| 20260830194518 | 71 | 253 | 0.0 | 3.0 | 0.00 | 0.00 | 0.00 | 52 | 1015.3 |
| 20260830193017 | 72 | 271 | 2.0 | 3.0 | 0.00 | 0.00 | 0.00 | 56 | 1015.1 |
| 20260830191515 | 73 | 281 | 1.0 | 3.0 | 0.00 | 0.00 | 0.00 | 57 | 1015.2 |
| 20260830190013 | 73 | 197 | 0.0 | 4.0 | 0.00 | 0.00 | 0.00 | 59 | 1015.3 |
| 20260830184518 | 74 | 201 | 1.0 | 5.0 | 0.00 | 0.00 | 0.00 | 58 | 1015.4 |
| 20260830183009 | 73 | 171 | 2.0 | 4.0 | 0.00 | 0.00 | 0.00 | 58 | 1015.5 |
| 20260830181506 | 73 | 221 | 2.0 | 6.0 | 0.00 | 0.00 | 0.00 | 58 | 1015.8 |
| 20260830180004 | 73 | 185 | 2.0 | 7.0 | 0.00 | 0.00 | 0.00 | 58 | 1016.0 |
| 20260830174502 | 72 | 209 | 3.0 | 6.0 | 0.00 | 0.00 | 0.00 | 57 | 1016.0 |
| 20260830173000 | 72 | 172 | 3.0 | 8.0 | 0.00 | 0.00 | 0.00 | 58 | 1016.0 |
| 20260830171557 | 71 | 236 | 1.0 | 7.0 | 0.00 | 0.00 | 0.00 | 53 | 1016.1 |
| 20260830170058 | 70 | 202 | 4.0 | 10.0 | 0.00 | 0.00 | 0.00 | 53 | 1016.3 |
| 20260830164600 | 71 | 332 | 4.0 | 10.0 | 0.00 | 0.00 | 0.00 | 56 | 1016.5 |
| 20260830163106 | 71 | 200 | 3.0 | 6.0 | 0.00 | 0.00 | 0.00 | 57 | 1016.6 |
| 20260830161548 | 71 | 182 | 2.0 | 7.0 | 0.00 | 0.00 | 0.00 | 58 | 1016.7 |
| 20260830160045 | 71 | 161 | 2.0 | 8.0 | 0.00 | 0.00 | 0.00 | 58 | 1016.9 |
| 20260830154544 | 70 | 225 | 3.0 | 6.0 | 0.00 | 0.00 | 0.00 | 58 | 1017.0 |
| 20260830153036 | 69 | 163 | 3.0 | 8.0 | 0.00 | 0.00 | 0.00 | 57 | 1017.1 |
| 20260830151533 | 69 | 167 | 4.0 | 10.0 | 0.00 | 0.00 | 0.00 | 57 | 1017.1 |
| 20260830150035 | 69 | 177 | 4.0 | 7.0 | 0.00 | 0.00 | 0.00 | 56 | 1017.3 |
| 20260830144522 | 68 | 157 | 2.0 | 5.0 | 0.00 | 0.00 | 0.00 | 53 | 1017.3 |
| 20260830143016 | 68 | 205 | 2.0 | 8.0 | 0.00 | 0.00 | 0.00 | 53 | 1017.4 |
| 20260830141510 | 66 | 134 | 2.0 | 4.0 | 0.00 | 0.00 | 0.00 | 49 | 1017.3 |
| 20260830140013 | 65 | 150 | 1.0 | 3.0 | 0.00 | 0.00 | 0.00 | 37 | 1017.4 |
| 20260830134502 | 64 | 105 | 0.0 | 0.0 | 0.00 | 0.00 | 0.00 | 1 | 1017.5 |
| 20260830133058 | 64 | 119 | 0.0 | 0.0 | 0.00 | 0.00 | 0.00 | 1 | 1017.7 |
| 20260830131552 | 63 | 126 | 0.0 | 0.0 | 0.00 | 0.00 | 0.00 | 1 | 1017.9 |
| 20260830130047 | 62 | 165 | 0.0 | 0.0 | 0.00 | 0.00 | 0.00 | 1 | 1018.0 |
| 20260830124542 | 60 | 167 | 0.0 | 0.0 | 0.00 | 0.00 | 0.00 | 1 | 1017.9 |
| 20260830123042 | 59 | 167 | 0.0 | 0.0 | 0.00 | 0.00 | 0.00 | 1 | 1018.1 |